This is the latest recevied weather packets stored in our database for station/object K4WCH. If no packets are shown the sender has not sent any weather packets the latest 10 day(s).
| Time | Temp. | Humidity | Pressure | Rain* | Wind** | Luminosity | Snow |
|---|---|---|---|---|---|---|---|
| 1788389337 | 28.89° C | 81% | 1014 hPa | 0 mm | - | 47 W/m² | - |
| 1788389032 | 28.89° C | 80% | 1014 hPa | 0 mm | - | 56 W/m² | - |
| 1788388729 | 28.89° C | 81% | 1014 hPa | 0 mm | - | 58 W/m² | - |
| 1788388428 | 29.44° C | 80% | 1013.9 hPa | 0 mm | - | 48 W/m² | - |
| 1788388123 | 29.44° C | 79% | 1014.1 hPa | 0 mm | - | 41 W/m² | - |
| 1788387822 | 29.44° C | 77% | 1014 hPa | 0 mm | - | 40 W/m² | - |
| 1788387516 | 29.44° C | 76% | 1014 hPa | 0 mm | - | 62 W/m² | - |
| 1788387216 | 29.44° C | 75% | 1013.9 hPa | 0 mm | - | 76 W/m² | - |
| 1788386911 | 29.44° C | 76% | 1013.9 hPa | 0 mm | - | 112 W/m² | - |
| 1788386611 | 29.44° C | 76% | 1013.7 hPa | 0 mm | - | 122 W/m² | - |
| 1788386307 | 30° C | 76% | 1014 hPa | 0 mm | - | 117 W/m² | - |
| 1788386007 | 30° C | 77% | 1013.9 hPa | 0 mm | - | 128 W/m² | - |
| 1788385703 | 30° C | 76% | 1014.3 hPa | 0 mm | - | 126 W/m² | - |
| 1788385401 | 30° C | 75% | 1013.9 hPa | 0 mm | - | 124 W/m² | - |
| 1788385097 | 30° C | 76% | 1013.8 hPa | 0 mm | - | 136 W/m² | - |
| 1788384792 | 30° C | 75% | 1014.2 hPa | 0 mm | - | 136 W/m² | - |
| 1788384491 | 30.56° C | 74% | 1014.3 hPa | 0 mm | - | 146 W/m² | - |
| 1788384203 | 30.56° C | 73% | 1014.2 hPa | 0 mm | - | 163 W/m² | - |
| 1788383884 | 30.56° C | 75% | 1013.9 hPa | 0 mm | - | 361 W/m² | - |
| 1788383580 | 31.11° C | 75% | 1014 hPa | 0 mm | - | 271 W/m² | - |
| 1788383280 | 31.11° C | 75% | 1014.1 hPa | 0 mm | - | 281 W/m² | - |
| 1788382974 | 31.11° C | 73% | 1014 hPa | 0 mm | - | 307 W/m² | - |
| 1788382672 | 31.11° C | 75% | 1014.1 hPa | 0 mm | - | 417 W/m² | - |
| 1788382368 | 31.11° C | 73% | 1014.2 hPa | 0 mm | - | 467 W/m² | - |
| 1788382063 | 31.11° C | 73% | 1014 hPa | 0 mm | - | 557 W/m² | - |
* Rain latest hour (hover to see other rain measurements)
** Current wind speed in m/s (hover to see current wind gust speed)